Вернуться в каталог

CZ-4 DEB

АктивенSSO
NORAD 20885·DEBRIS·🇨🇳 China

Запущен Sep 3, 1990 с Taiyuan Satellite Launch Center

Loading…

Ближайшие Пролёты (ближайшие 24 часа)

TLE

СвежийSource: Space-Track

Эпоха: Sep 14, 2026, 18:00 UTC

1 20885U 90081AV  26257.75048919  .00000013  00000-0  42064-4 0  9990
2 20885  98.8550 241.6378 0067773  82.3616  91.8657 13.91095075822599

Отслеживайте CZ-4 DEB в реальном времени с AllMySat

Download on the App Store